QPF
0.00 0.00 0.00 0.00 0.00 0.00 0.00 0.01 0.01 0.00 0.00 0.00 0.01 0.01 0.02 0.04 0.04 0.03 0.03 0.04 0.04 0.05 0.05 0.05 0.05 0.05 0.04 0.05 0.05 0.06 0.05 0.05 0.13 0.14 0.07 0.05 0.06 0.05 0.04 0.05 0.05 0.05 0.07
0.00 0.00 0.00 0.00 0.00 0.00 0.00 0.00 0.01 0.01 0.00 0.00 0.01 0.02 0.03 0.04 0.04 0.04 0.03 0.03 0.03 0.04 0.05 0.04 0.05 0.06 0.05 0.05 0.07 0.13 0.10 0.06 0.12 0.19 0.10 0.08 0.06 0.06 0.07 0.06 0.05 0.05 0.08
0.00 0.00 0.00 0.00 0.00 0.00 0.00 0.00 0.01 0.01 0.00 0.00 0.00 0.01 0.01 0.02 0.02 0.02 0.02 0.03 0.03 0.03 0.03 0.04 0.05 0.05 0.04 0.06 0.09 0.15 0.14 0.10 0.08 0.16 0.14 0.10 0.06 0.04 0.06 0.06 0.06 0.06 0.07
0.00 0.00 0.00 0.00 0.00 0.00 0.00 0.01 0.02 0.01 0.01 0.01 0.01 0.01 0.01 0.02 0.02 0.02 0.02 0.02 0.03 0.02 0.02 0.02 0.03 0.04 0.04 0.05 0.07 0.11 0.14 0.13 0.08 0.10 0.12 0.09 0.04 0.04 0.04 0.05 0.06 0.06 0.07
0.00 0.00 0.00 0.00 0.00 0.00 0.01 0.01 0.02 0.03 0.03 0.02 0.01 0.01 0.02 0.02 0.02 0.01 0.02 0.03 0.04 0.03 0.02 0.01 0.02 0.03 0.04 0.04 0.05 0.08 0.12 0.15 0.11 0.07 0.06 0.05 0.04 0.04 0.05 0.04 0.05 0.05 0.05
0.00 0.00 0.00 0.00 0.00 0.01 0.01 0.01 0.01 0.02 0.03 0.02 0.01 0.02 0.02 0.02 0.02 0.02 0.02 0.02 0.03 0.03 0.02 0.03 0.03 0.02 0.01 0.02 0.03 0.06 0.10 0.12 0.11 0.08 0.05 0.05 0.04 0.04 0.04 0.05 0.05 0.05 0.05
0.00 0.00 0.00 0.00 0.00 0.00 0.01 0.01 0.00 0.01 0.01 0.01 0.02 0.03 0.03 0.02 0.02 0.02 0.02 0.02 0.02 0.02 0.03 0.03 0.05 0.05 0.03 0.01 0.02 0.04 0.11 0.15 0.13 0.09 0.06 0.05 0.04 0.04 0.05 0.06 0.07 0.08 0.08
0.00 0.00 0.00 0.00 0.00 0.01 0.01 0.01 0.01 0.01 0.01 0.01 0.03 0.05 0.05 0.04 0.02 0.01 0.01 0.01 0.02 0.03 0.03 0.03 0.03 0.05 0.06 0.04 0.02 0.03 0.10 0.15 0.15 0.12 0.09 0.07 0.05 0.05 0.06 0.06 0.07 0.08 0.07
0.00 0.00 0.00 0.00 0.00 0.00 0.00 0.00 0.01 0.01 0.02 0.01 0.01 0.03 0.05 0.05 0.04 0.03 0.03 0.02 0.02 0.03 0.04 0.04 0.04 0.05 0.06 0.06 0.04 0.02 0.05 0.10 0.14 0.13 0.12 0.11 0.12 0.11 0.10 0.07 0.07 0.06 0.05
0.00 0.00 0.00 0.00 0.00 0.00 0.00 0.00 0.00 0.01 0.02 0.02 0.01 0.01 0.01 0.03 0.04 0.04 0.04 0.03 0.03 0.03 0.06 0.06 0.05 0.06 0.05 0.07 0.05 0.03 0.03 0.05 0.08 0.11 0.11 0.11 0.11 0.11 0.11 0.08 0.07 0.06 0.05
0.00 0.00 0.00 0.00 0.00 0.00 0.00 0.00 0.00 0.00 0.01 0.01 0.01 0.01 0.01 0.01 0.02 0.03 0.04 0.04 0.03 0.04 0.05 0.07 0.07 0.06 0.04 0.05 0.05 0.03 0.02 0.03 0.04 0.05 0.06 0.07 0.08 0.08 0.09 0.08 0.07 0.06 0.05
0.00 0.00 0.00 0.00 0.00 0.00 0.00 0.00 0.00 0.00 0.01 0.01 0.01 0.01 0.02 0.02 0.02 0.04 0.04 0.04 0.04 0.03 0.04 0.04 0.04 0.03 0.03 0.03 0.02 0.02 0.02 0.02 0.03 0.04 0.05 0.06 0.07 0.08 0.10 0.10 0.09 0.08 0.07
0.00 0.00 0.00 0.00 0.00 0.00 0.00 0.00 0.00 0.00 0.00 0.00 0.01 0.01 0.02 0.02 0.02 0.03 0.03 0.04 0.03 0.02 0.02 0.03 0.02 0.01 0.02 0.02 0.02 0.02 0.01 0.01 0.02 0.03 0.03 0.04 0.06 0.09 0.13 0.16 0.14 0.12 0.11
0.00 0.00 0.00 0.00 0.00 0.00 0.00 0.00 0.00 0.00 0.00 0.00 0.00 0.01 0.02 0.01 0.01 0.01 0.02 0.03 0.03 0.02 0.02 0.03 0.03 0.02 0.02 0.01 0.01 0.01 0.01 0.01 0.01 0.01 0.01 0.02 0.02 0.04 0.05 0.07 0.07 0.09 0.09
0.01 0.00 0.01 0.01 0.00 0.00 0.00 0.00 0.00 0.00 0.00 0.00 0.01 0.01 0.01 0.01 0.00 0.00 0.01 0.02 0.03 0.03 0.03 0.03 0.04 0.02 0.02 0.01 0.01 0.01 0.02 0.01 0.00 0.00 0.00 0.00 0.01 0.01 0.01 0.01 0.02 0.04 0.07
0.01 0.01 0.02 0.02 0.01 0.00 0.00 0.00 0.00 0.00 0.00 0.00 0.00 0.00 0.00 0.00 0.00 0.00 0.00 0.01 0.02 0.02 0.03 0.03 0.02 0.01 0.01 0.01 0.01 0.01 0.02 0.01 0.01 0.01 0.01 0.01 0.00 0.01 0.01 0.01 0.01 0.02 0.03
0.04 0.04 0.03 0.02 0.01 0.01 0.00 0.00 0.00 0.00 0.00 0.00 0.00 0.00 0.00 0.00 0.00 0.00 0.00 0.00 0.01 0.01 0.03 0.04 0.02 0.02 0.01 0.01 0.01 0.02 0.01 0.01 0.01 0.01 0.01 0.01 0.01 0.01 0.01 0.01 0.01 0.01 0.02
0.07 0.06 0.05 0.02 0.01 0.00 0.00 0.00 0.00 0.00 0.00 0.00 0.00 0.00 0.00 0.00 0.00 0.00 0.00 0.00 0.01 0.01 0.01 0.02 0.02 0.01 0.01 0.01 0.02 0.02 0.01 0.01 0.00 0.00 0.00 0.00 0.00 0.00 0.01 0.01 0.02 0.02 0.02
0.05 0.04 0.04 0.03 0.01 0.00 0.00 0.00 0.01 0.01 0.01 0.00 0.00 0.01 0.01 0.01 0.01 0.00 0.00 0.01 0.01 0.01 0.01 0.01 0.01 0.02 0.01 0.01 0.02 0.02 0.01 0.00 0.00 0.00 0.00 0.00 0.00 0.00 0.00 0.00 0.01 0.01 0.03
0.01 0.01 0.01 0.01 0.01 0.00 0.00 0.00 0.00 0.00 0.00 0.00 0.00 0.01 0.01 0.01 0.01 0.00 0.00 0.00 0.01 0.01 0.01 0.01 0.01 0.01 0.02 0.02 0.02 0.02 0.02 0.02 0.01 0.00 0.00 0.01 0.00 0.00 0.00 0.00 0.01 0.01 0.01
0.01 0.01 0.01 0.01 0.01 0.01 0.00 0.00 0.00 0.00 0.00 0.01 0.01 0.00 0.00 0.00 0.00 0.00 0.00 0.00 0.00 0.01 0.01 0.01 0.01 0.01 0.01 0.01 0.01 0.01 0.02 0.02 0.02 0.02 0.02 0.02 0.02 0.02 0.01 0.00 0.00 0.00 0.00
0.01 0.01 0.01 0.01 0.01 0.01 0.01 0.01 0.00 0.00 0.00 0.01 0.01 0.00 0.00 0.00 0.00 0.00 0.00 0.00 0.00 0.00 0.01 0.01 0.01 0.01 0.00 0.00 0.00 0.00 0.01 0.01 0.01 0.01 0.01 0.01 0.01 0.01 0.01 0.00 0.00 0.00 0.00
0.01 0.01 0.01 0.01 0.01 0.01 0.01 0.01 0.00 0.00 0.00 0.01 0.01 0.01 0.00 0.00 0.00 0.00 0.00 0.00 0.00 0.00 0.00 0.01 0.01 0.00 0.00 0.00 0.00 0.00 0.00 0.00 0.00 0.00 0.00 0.00 0.00 0.00 0.00 0.00 0.00 0.00 0.00
0.01 0.01 0.01 0.01 0.01 0.01 0.01 0.00 0.00 0.00 0.01 0.01 0.01 0.01 0.00 0.00 0.00 0.00 0.00 0.00 0.00 0.00 0.00 0.00 0.00 0.00 0.00 0.00 0.00 0.00 0.00 0.00 0.00 0.00 0.00 0.00 0.00 0.00 0.00 0.00 0.00 0.00 0.00
0.01 0.01 0.01 0.01 0.01 0.01 0.00 0.00 0.00 0.01 0.01 0.01 0.01 0.00 0.00 0.00 0.00 0.00 0.00 0.00 0.00 0.00 0.00 0.00 0.00 0.00 0.00 0.00 0.00 0.00 0.00 0.00 0.00 0.00 0.00 0.00 0.00 0.01 0.00 0.00 0.00 0.00 0.00
0.01 0.01 0.00 0.01 0.01 0.01 0.00 0.00 0.00 0.01 0.01 0.01 0.01 0.00 0.00 0.00 0.00 0.00 0.00 0.00 0.00 0.00 0.00 0.00 0.00 0.00 0.00 0.00 0.00 0.00 0.00 0.00 0.00 0.00 0.00 0.01 0.01 0.01 0.00 0.00 0.00 0.00 0.00
MSLP
1016.50 1016.42 1016.29 1016.12 1015.91 1015.69 1015.48 1015.28 1015.11 1014.97 1014.86 1014.78 1014.72 1014.69 1014.70 1014.75 1014.85 1015.02 1015.23 1015.48 1015.77 1016.07 1016.36 1016.64 1016.89 1017.11 1017.30 1017.47 1017.62 1017.74 1017.85 1017.95 1018.04 1018.12 1018.21 1018.29 1018.39 1018.48 1018.59 1018.69 1018.79 1018.87 1018.94
1016.76 1016.64 1016.49 1016.30 1016.10 1015.88 1015.68 1015.49 1015.32 1015.18 1015.06 1014.97 1014.90 1014.85 1014.85 1014.88 1014.97 1015.11 1015.30 1015.53 1015.80 1016.09 1016.39 1016.67 1016.94 1017.18 1017.39 1017.57 1017.72 1017.84 1017.95 1018.03 1018.11 1018.19 1018.27 1018.37 1018.47 1018.58 1018.69 1018.80 1018.89 1018.97 1019.02
1017.11 1016.97 1016.80 1016.61 1016.41 1016.22 1016.03 1015.85 1015.70 1015.56 1015.43 1015.32 1015.23 1015.16 1015.12 1015.12 1015.17 1015.27 1015.42 1015.62 1015.85 1016.11 1016.39 1016.67 1016.95 1017.21 1017.44 1017.64 1017.81 1017.95 1018.06 1018.14 1018.22 1018.29 1018.36 1018.45 1018.54 1018.65 1018.76 1018.85 1018.93 1018.98 1019.01
1017.55 1017.37 1017.19 1017.01 1016.83 1016.66 1016.49 1016.34 1016.19 1016.05 1015.92 1015.79 1015.67 1015.57 1015.50 1015.46 1015.47 1015.52 1015.61 1015.76 1015.94 1016.16 1016.40 1016.67 1016.95 1017.22 1017.47 1017.70 1017.90 1018.06 1018.18 1018.27 1018.34 1018.39 1018.44 1018.50 1018.58 1018.65 1018.73 1018.80 1018.86 1018.89 1018.89
1018.01 1017.82 1017.64 1017.47 1017.32 1017.17 1017.03 1016.90 1016.76 1016.62 1016.47 1016.33 1016.19 1016.07 1015.97 1015.90 1015.87 1015.87 1015.91 1015.99 1016.11 1016.27 1016.47 1016.71 1016.97 1017.24 1017.52 1017.78 1018.00 1018.19 1018.33 1018.42 1018.48 1018.51 1018.52 1018.54 1018.56 1018.59 1018.62 1018.65 1018.67 1018.67 1018.65
1018.47 1018.28 1018.11 1017.96 1017.83 1017.71 1017.60 1017.48 1017.35 1017.21 1017.06 1016.91 1016.77 1016.64 1016.53 1016.45 1016.39 1016.36 1016.35 1016.37 1016.43 1016.52 1016.66 1016.85 1017.08 1017.34 1017.62 1017.90 1018.15 1018.36 1018.51 1018.61 1018.65 1018.64 1018.61 1018.56 1018.52 1018.48 1018.45 1018.42 1018.40 1018.37 1018.33
1018.90 1018.72 1018.56 1018.44 1018.34 1018.26 1018.17 1018.07 1017.95 1017.81 1017.66 1017.52 1017.38 1017.27 1017.18 1017.10 1017.05 1017.00 1016.96 1016.94 1016.93 1016.95 1017.02 1017.15 1017.33 1017.56 1017.84 1018.12 1018.38 1018.61 1018.77 1018.86 1018.87 1018.82 1018.73 1018.62 1018.50 1018.38 1018.28 1018.20 1018.13 1018.07 1018.01
1019.31 1019.14 1019.01 1018.92 1018.86 1018.81 1018.74 1018.66 1018.55 1018.42 1018.28 1018.15 1018.04 1017.96 1017.91 1017.87 1017.84 1017.81 1017.76 1017.70 1017.64 1017.59 1017.59 1017.64 1017.76 1017.95 1018.19 1018.46 1018.72 1018.94 1019.10 1019.17 1019.16 1019.07 1018.92 1018.73 1018.54 1018.35 1018.18 1018.05 1017.93 1017.84 1017.76
1019.70 1019.56 1019.47 1019.42 1019.39 1019.36 1019.32 1019.25 1019.15 1019.03 1018.91 1018.81 1018.74 1018.71 1018.72 1018.74 1018.75 1018.75 1018.70 1018.63 1018.52 1018.42 1018.34 1018.32 1018.37 1018.50 1018.69 1018.92 1019.16 1019.37 1019.51 1019.56 1019.51 1019.38 1019.18 1018.93 1018.68 1018.43 1018.21 1018.03 1017.88 1017.75 1017.63
1020.11 1020.01 1019.96 1019.94 1019.95 1019.95 1019.93 1019.87 1019.78 1019.67 1019.57 1019.50 1019.48 1019.50 1019.57 1019.65 1019.73 1019.76 1019.74 1019.66 1019.53 1019.37 1019.23 1019.13 1019.11 1019.17 1019.30 1019.48 1019.68 1019.85 1019.96 1019.98 1019.90 1019.73 1019.49 1019.20 1018.91 1018.63 1018.38 1018.16 1017.98 1017.81 1017.64
1020.56 1020.50 1020.49 1020.51 1020.55 1020.58 1020.57 1020.52 1020.44 1020.34 1020.26 1020.21 1020.23 1020.30 1020.42 1020.56 1020.69 1020.77 1020.78 1020.70 1020.55 1020.36 1020.17 1020.00 1019.91 1019.90 1019.96 1020.08 1020.22 1020.34 1020.41 1020.39 1020.27 1020.07 1019.80 1019.50 1019.19 1018.90 1018.64 1018.42 1018.21 1017.99 1017.75
1021.05 1021.03 1021.06 1021.12 1021.19 1021.24 1021.25 1021.21 1021.14 1021.04 1020.97 1020.94 1020.97 1021.08 1021.24 1021.42 1021.59 1021.70 1021.73 1021.66 1021.51 1021.30 1021.06 1020.85 1020.70 1020.61 1020.61 1020.66 1020.73 1020.79 1020.80 1020.73 1020.58 1020.35 1020.07 1019.77 1019.47 1019.20 1018.95 1018.72 1018.49 1018.23 1017.90
1021.57 1021.59 1021.66 1021.76 1021.85 1021.92 1021.95 1021.92 1021.85 1021.75 1021.68 1021.65 1021.69 1021.80 1021.98 1022.18 1022.37 1022.50 1022.55 1022.49 1022.34 1022.12 1021.86 1021.61 1021.41 1021.27 1021.19 1021.17 1021.17 1021.16 1021.10 1020.98 1020.79 1020.54 1020.26 1019.97 1019.69 1019.45 1019.23 1019.02 1018.78 1018.46 1018.03
1022.09 1022.16 1022.26 1022.39 1022.51 1022.60 1022.64 1022.62 1022.56 1022.46 1022.38 1022.34 1022.37 1022.48 1022.64 1022.84 1023.03 1023.17 1023.22 1023.17 1023.02 1022.80 1022.53 1022.27 1022.03 1021.84 1021.71 1021.61 1021.54 1021.45 1021.32 1021.13 1020.90 1020.62 1020.33 1020.06 1019.81 1019.61 1019.43 1019.24 1018.99 1018.63 1018.10
1022.60 1022.69 1022.83 1022.99 1023.14 1023.26 1023.32 1023.32 1023.25 1023.16 1023.07 1023.02 1023.03 1023.11 1023.25 1023.42 1023.59 1023.72 1023.77 1023.72 1023.58 1023.36 1023.10 1022.83 1022.57 1022.35 1022.16 1022.01 1021.85 1021.69 1021.48 1021.23 1020.94 1020.63 1020.33 1020.06 1019.84 1019.67 1019.52 1019.35 1019.11 1018.71 1018.10
1023.06 1023.19 1023.36 1023.55 1023.73 1023.88 1023.96 1023.98 1023.94 1023.85 1023.76 1023.69 1023.68 1023.73 1023.83 1023.97 1024.11 1024.21 1024.25 1024.20 1024.07 1023.86 1023.61 1023.34 1023.07 1022.82 1022.60 1022.39 1022.17 1021.93 1021.65 1021.34 1020.99 1020.64 1020.31 1020.03 1019.81 1019.65 1019.53 1019.37 1019.13 1018.71 1018.06
1023.48 1023.64 1023.85 1024.07 1024.28 1024.46 1024.58 1024.62 1024.60 1024.53 1024.44 1024.37 1024.34 1024.36 1024.43 1024.54 1024.64 1024.72 1024.73 1024.68 1024.55 1024.35 1024.11 1023.84 1023.58 1023.32 1023.07 1022.81 1022.54 1022.24 1021.89 1021.51 1021.11 1020.70 1020.33 1020.02 1019.79 1019.62 1019.49 1019.34 1019.09 1018.67 1018.00
1023.87 1024.07 1024.30 1024.55 1024.80 1025.01 1025.15 1025.23 1025.24 1025.19 1025.12 1025.05 1025.02 1025.02 1025.07 1025.14 1025.22 1025.27 1025.27 1025.20 1025.07 1024.88 1024.64 1024.38 1024.12 1023.85 1023.58 1023.30 1022.99 1022.64 1022.25 1021.81 1021.35 1020.89 1020.47 1020.11 1019.82 1019.62 1019.45 1019.28 1019.03 1018.61 1017.96
1024.26 1024.48 1024.74 1025.02 1025.29 1025.53 1025.70 1025.81 1025.84 1025.83 1025.78 1025.73 1025.70 1025.70 1025.74 1025.79 1025.85 1025.87 1025.85 1025.77 1025.63 1025.44 1025.21 1024.95 1024.68 1024.41 1024.13 1023.83 1023.50 1023.13 1022.70 1022.23 1021.73 1021.22 1020.73 1020.31 1019.95 1019.67 1019.45 1019.23 1018.95 1018.54 1017.94
1024.64 1024.89 1025.17 1025.47 1025.76 1026.01 1026.21 1026.34 1026.40 1026.41 1026.39 1026.36 1026.35 1026.36 1026.40 1026.45 1026.49 1026.50 1026.46 1026.37 1026.21 1026.01 1025.77 1025.50 1025.23 1024.95 1024.67 1024.37 1024.04 1023.66 1023.22 1022.73 1022.20 1021.65 1021.11 1020.61 1020.17 1019.80 1019.48 1019.18 1018.86 1018.45 1017.89
1025.02 1025.29 1025.58 1025.89 1026.18 1026.44 1026.65 1026.79 1026.88 1026.91 1026.92 1026.92 1026.93 1026.96 1027.00 1027.05 1027.09 1027.09 1027.04 1026.93 1026.75 1026.53 1026.27 1025.99 1025.71 1025.43 1025.15 1024.85 1024.53 1024.16 1023.74 1023.25 1022.71 1022.13 1021.54 1020.97 1020.43 1019.95 1019.53 1019.14 1018.75 1018.32 1017.79
1025.37 1025.65 1025.94 1026.25 1026.54 1026.80 1027.00 1027.15 1027.24 1027.30 1027.32 1027.35 1027.39 1027.44 1027.50 1027.56 1027.60 1027.59 1027.53 1027.40 1027.20 1026.96 1026.67 1026.37 1026.08 1025.78 1025.50 1025.21 1024.91 1024.57 1024.17 1023.71 1023.17 1022.59 1021.96 1021.33 1020.70 1020.12 1019.57 1019.07 1018.60 1018.12 1017.60
1025.64 1025.93 1026.23 1026.53 1026.81 1027.05 1027.24 1027.38 1027.48 1027.55 1027.60 1027.65 1027.71 1027.79 1027.87 1027.94 1027.99 1027.97 1027.90 1027.75 1027.53 1027.26 1026.95 1026.63 1026.30 1026.00 1025.71 1025.43 1025.14 1024.83 1024.46 1024.03 1023.53 1022.95 1022.31 1021.63 1020.94 1020.25 1019.59 1018.98 1018.41 1017.86 1017.33
1025.80 1026.09 1026.39 1026.68 1026.95 1027.18 1027.36 1027.50 1027.60 1027.67 1027.74 1027.81 1027.90 1028.00 1028.10 1028.19 1028.24 1028.23 1028.14 1027.98 1027.75 1027.45 1027.11 1026.76 1026.42 1026.09 1025.79 1025.51 1025.24 1024.94 1024.61 1024.22 1023.74 1023.19 1022.55 1021.85 1021.11 1020.35 1019.61 1018.89 1018.22 1017.60 1017.02
1025.80 1026.11 1026.41 1026.70 1026.96 1027.18 1027.36 1027.50 1027.61 1027.70 1027.79 1027.88 1027.99 1028.12 1028.24 1028.33 1028.39 1028.38 1028.30 1028.13 1027.88 1027.57 1027.21 1026.84 1026.47 1026.13 1025.81 1025.52 1025.25 1024.97 1024.66 1024.29 1023.85 1023.32 1022.71 1022.01 1021.26 1020.46 1019.65 1018.86 1018.11 1017.41 1016.77
1025.65 1025.98 1026.30 1026.60 1026.87 1027.09 1027.28 1027.43 1027.56 1027.67 1027.79 1027.91 1028.04 1028.19 1028.32 1028.43 1028.49 1028.49 1028.41 1028.24 1028.00 1027.68 1027.32 1026.94 1026.55 1026.19 1025.85 1025.55 1025.26 1024.98 1024.67 1024.33 1023.91 1023.42 1022.83 1022.16 1021.42 1020.62 1019.79 1018.95 1018.14 1017.37 1016.67
Thickness
5746 5745 5744 5743 5743 5742 5743 5742 5741 5741 5740 5739 5739 5737 5736 5735 5733 5731 5729 5728 5728 5728 5729 5730 5731 5732 5733 5734 5736 5737 5739 5742 5744 5745 5746 5747 5748 5749 5749 5749 5750 5750 5751
5745 5743 5742 5741 5741 5741 5741 5740 5739 5739 5738 5736 5735 5734 5733 5732 5730 5729 5727 5725 5725 5725 5725 5726 5727 5728 5729 5731 5732 5734 5736 5739 5743 5744 5745 5745 5745 5745 5746 5746 5747 5747 5747
5742 5741 5740 5740 5739 5739 5739 5738 5737 5736 5735 5733 5731 5731 5730 5729 5728 5727 5725 5723 5722 5722 5722 5722 5723 5724 5725 5727 5729 5731 5733 5736 5739 5742 5744 5742 5741 5742 5742 5743 5743 5743 5744
5740 5739 5738 5738 5738 5737 5736 5735 5733 5731 5730 5729 5728 5728 5727 5726 5725 5724 5723 5722 5721 5719 5719 5719 5719 5720 5721 5722 5725 5728 5730 5733 5735 5738 5739 5738 5738 5738 5739 5739 5739 5740 5740
5738 5736 5735 5735 5735 5734 5733 5733 5730 5728 5726 5725 5725 5725 5724 5723 5722 5721 5720 5719 5718 5717 5716 5715 5715 5716 5717 5718 5721 5723 5726 5729 5731 5733 5733 5733 5733 5733 5734 5735 5735 5736 5736
5735 5734 5733 5733 5732 5730 5729 5729 5726 5726 5725 5724 5724 5722 5721 5720 5719 5718 5717 5716 5715 5714 5713 5713 5712 5712 5712 5714 5716 5718 5721 5724 5726 5728 5728 5728 5728 5728 5729 5730 5731 5731 5732
5731 5731 5731 5729 5728 5726 5725 5725 5724 5722 5721 5722 5718 5715 5716 5717 5715 5714 5714 5713 5712 5711 5711 5710 5709 5709 5708 5709 5710 5713 5716 5719 5721 5722 5722 5722 5722 5723 5724 5725 5726 5726 5727
5728 5729 5728 5726 5725 5723 5722 5722 5720 5718 5718 5719 5714 5708 5703 5704 5708 5711 5710 5709 5708 5708 5707 5706 5706 5705 5704 5704 5705 5707 5709 5712 5714 5715 5716 5716 5717 5717 5718 5719 5720 5721 5721
5725 5725 5725 5724 5723 5721 5719 5718 5717 5715 5712 5714 5715 5708 5699 5693 5698 5703 5705 5705 5704 5703 5703 5702 5701 5701 5700 5700 5700 5701 5703 5705 5707 5709 5710 5710 5710 5711 5712 5713 5714 5715 5715
5722 5722 5722 5721 5720 5719 5717 5716 5715 5713 5711 5707 5709 5710 5707 5703 5696 5692 5697 5700 5701 5700 5699 5699 5697 5697 5696 5696 5695 5696 5698 5699 5701 5702 5703 5704 5705 5705 5706 5707 5707 5708 5709
5719 5719 5719 5719 5718 5716 5715 5714 5712 5711 5709 5706 5705 5704 5704 5702 5701 5693 5688 5691 5694 5695 5696 5695 5694 5693 5692 5692 5691 5691 5693 5694 5695 5696 5697 5697 5698 5699 5700 5700 5701 5701 5702
5716 5716 5716 5716 5714 5713 5712 5711 5710 5708 5707 5705 5704 5702 5699 5696 5694 5692 5688 5687 5687 5689 5692 5692 5691 5689 5688 5687 5687 5687 5688 5688 5689 5689 5690 5691 5691 5692 5692 5693 5694 5694 5695
5711 5712 5713 5712 5711 5710 5709 5708 5707 5705 5704 5703 5701 5699 5698 5697 5696 5693 5688 5686 5685 5686 5688 5688 5687 5686 5685 5684 5683 5683 5682 5683 5683 5683 5683 5684 5684 5684 5685 5685 5685 5686 5686
5710 5710 5710 5709 5708 5707 5706 5705 5703 5702 5701 5700 5699 5697 5695 5695 5695 5692 5688 5684 5680 5680 5681 5681 5683 5682 5681 5680 5679 5679 5678 5677 5677 5677 5677 5677 5677 5677 5677 5677 5677 5677 5678
5708 5707 5706 5705 5704 5703 5702 5701 5699 5697 5697 5696 5695 5694 5692 5691 5691 5690 5688 5685 5677 5671 5671 5674 5676 5677 5677 5676 5675 5674 5673 5672 5672 5672 5671 5671 5670 5670 5669 5669 5669 5669 5669
5705 5704 5703 5701 5700 5699 5698 5696 5695 5694 5693 5692 5691 5689 5688 5687 5686 5685 5684 5682 5679 5673 5667 5669 5670 5672 5672 5671 5669 5668 5667 5667 5666 5666 5665 5664 5663 5663 5662 5661 5660 5660 5660
5701 5700 5699 5697 5695 5694 5694 5692 5691 5690 5689 5688 5687 5685 5683 5683 5681 5680 5679 5677 5675 5672 5664 5664 5667 5667 5666 5665 5664 5663 5662 5661 5660 5659 5658 5658 5657 5655 5654 5653 5653 5652 5651
5698 5697 5695 5693 5691 5690 5689 5688 5686 5686 5684 5682 5681 5680 5678 5678 5676 5674 5672 5670 5669 5667 5662 5658 5659 5659 5659 5658 5657 5656 5655 5654 5653 5652 5651 5651 5650 5648 5647 5646 5645 5644 5643
5694 5693 5691 5689 5687 5685 5684 5683 5683 5681 5680 5679 5677 5674 5673 5671 5668 5667 5666 5664 5662 5662 5658 5654 5651 5652 5651 5651 5650 5649 5648 5646 5646 5645 5643 5642 5641 5640 5639 5638 5637 5636 5635
5690 5688 5686 5684 5682 5680 5679 5678 5677 5676 5675 5674 5672 5669 5667 5665 5662 5661 5659 5656 5655 5653 5651 5647 5644 5643 5642 5642 5640 5638 5637 5637 5637 5636 5635 5633 5633 5631 5630 5629 5628 5627 5626
5686 5684 5681 5678 5676 5674 5673 5672 5672 5672 5670 5668 5666 5664 5661 5659 5657 5655 5652 5649 5647 5644 5642 5638 5635 5633 5631 5629 5628 5627 5626 5626 5626 5626 5625 5624 5623 5622 5620 5619 5618 5617 5616
5681 5678 5675 5671 5669 5668 5667 5667 5667 5665 5664 5662 5660 5658 5656 5653 5651 5648 5646 5643 5641 5638 5633 5630 5626 5623 5621 5620 5618 5617 5614 5613 5613 5615 5613 5612 5612 5611 5609 5608 5607 5606 5605
5675 5671 5668 5666 5663 5662 5662 5662 5661 5659 5657 5655 5654 5652 5650 5647 5644 5641 5638 5636 5633 5631 5628 5623 5618 5615 5612 5610 5609 5606 5604 5602 5601 5602 5601 5600 5599 5597 5597 5596 5595 5594 5593
5669 5666 5663 5661 5658 5657 5657 5656 5655 5653 5651 5649 5647 5645 5642 5639 5637 5634 5631 5627 5624 5622 5619 5616 5612 5609 5606 5603 5600 5597 5595 5594 5593 5591 5589 5586 5587 5585 5586 5584 5583 5581 5580
5665 5662 5659 5656 5653 5652 5651 5650 5648 5646 5644 5642 5639 5637 5635 5631 5630 5627 5623 5619 5615 5612 5610 5607 5604 5600 5597 5594 5591 5587 5583 5580 5578 5578 5576 5572 5573 5573 5573 5572 5570 5568 5567
5660 5658 5655 5652 5650 5647 5645 5643 5642 5639 5637 5634 5632 5629 5627 5624 5621 5618 5613 5609 5605 5603 5601 5598 5595 5591 5588 5584 5581 5576 5572 5567 5564 5563 5563 5559 5558 5557 5558 5559 5557 5554 5553